Regional Weather Roundup
Issued by NWS State College, PA

Current Version | Previous Version | Text Only | Print | Product List | Glossary On
Versions: 1 2 3 4 5 6 7 8 9 10 11 12 13 14 15 16 17 18 19 20 21 22 23 24 25 26 27 28 29 30 31 32 33 34 35 36 37 38 39 40 41 42 43 44 45 46 47 48 49 50
707
ASUS41 KCTP 011810
RWRCTP

REGIONAL WEATHER ROUNDUP
NATIONAL WEATHER SERVICE STATE COLLEGE PA
200 PM EDT FRI JUL 01 2016

Note: "fair" indicates few or no clouds below 12,000 feet with no
significant weather and/or obstructions to visibility.

* = STATION THAT DOES NOT REPORT PRECIPITATION /E.G. RAIN...SNOW...ETC/
    THUNDER OR FOG.

PAZ002>004-007>009-013>016-020>023-029>032-011900-
WESTERN PENNSYLVANIA

CITY           SKY/WX    TMP DP  RH WIND       PRES   REMARKS
ERIE           PTSUNNY   74  62  66 SW14      29.89S
MEADVILLE      PTSUNNY   67  61  81 VRB7      29.93F
FRANKLIN*      PTSUNNY   72  59  64 SW9       29.96S
NEW CASTLE     CLOUDY    75  60  59 SW13      29.94S
BEAVER COUNTY  CLOUDY    75  59  57 SW13G21   29.95S
BUTLER*        PTSUNNY   77  59  53 SW12G17   29.97F
PITTSBURGH INT PTSUNNY   78  55  44 W13       29.94F
PITTSBURGH     CLOUDY    77  54  44 SW12      29.95S
INDIANA*       MOSUNNY   77  57  50 W13       29.98F
LATROBE        PTSUNNY   77  59  53 W12       29.97F
WASHINGTON CO* PTSUNNY   79  57  47 SW13      29.97F
$$

PAZ004>006-010>012-017>019-024>028-033>037-041-042-045-046-049>053-011900-
CENTRAL PENNSYLVANIA

CITY           SKY/WX    TMP DP  RH WIND       PRES   REMARKS
BRADFORD       LGT RAIN  66  55  67 VRB6      29.94F
DUBOIS         CLOUDY    72  54  53 W12       29.95F
CLEARFIELD     CLOUDY    75  55  49 SW9       29.95F
JOHNSTOWN      PTSUNNY   72  52  49 W12       29.99F
ALTOONA        MOSUNNY   78  56  46 SW9       29.96F
STATE COLLEGE  PTSUNNY   77  59  53 SW10G17   29.95F
WILLIAMSPORT   LGT RAIN  75  66  73 SW8       29.88F
SELINSGROVE    MOSUNNY   80  66  62 MISG      29.90F HAZE
FT INDIANTOWN  LGT RAIN  78  69  75 W7        29.91S
CAPITAL CITY   CLOUDY    74  65  73 S6        29.91F
HARRISBURG     TSTM      76  63  64 NW8       29.90F
YORK           CLOUDY    81  66  60 SW8G18    29.91F
$$

PAZ038>040-043-044-047-048-054-055-060>062-067>071-011900-
EASTERN PENNSYLVANIA

CITY           SKY/WX    TMP DP  RH WIND       PRES   REMARKS
SCRANTON       RAIN      72  67  84 SW9       29.92S
MOUNT POCONO   MOSUNNY   73  63  70 S10       29.96F
ALLENTOWN      PTSUNNY   85  64  49 SW7G16    29.89F
QUAKERTOWN*    MOCLDY    82  66  57 CALM      29.92F
READING        HVY RAIN  77  68  73 W20G30    29.90F
LANCASTER      CLOUDY    81  68  64 SW8       29.90F
COATESVILLE    PTCLDY    82  68  61 VRB6G13   29.94F
POTTSTOWN      MOSUNNY   83  67  58 S8        29.92F
BLUE BELL      PTSUNNY   82  68  61 S12G18    29.91F
DOYLESTOWN     PTSUNNY   84  64  50 S10G16    29.91F
WILLOW GROVE   NOT AVBL
NORTH PHILA    CLOUDY    84  68  58 SW9       29.92F
PHILADELPHIA   CLOUDY    85  69  58 S10       29.91F THUNDER
$$




USA.gov is the U.S. government's official web portal to all federal, state and local government web resources and services.